Weather History for KDEH - January, 2013

Change the Weather History Date:

Saturday, January 12, 2013

  Actual Average Record
Temperature  
Mean Temperature 31 °F -  
Max Temperature 48 °F 24 °F 14 °F (2015)
Min Temperature 12 °F 5 °F -5 °F (2015)
Degree Days  
Heating Degree Days 34    
Moisture  
Dew Point 17 °F    
Average Humidity 73    
Maximum Humidity 93    
Minimum Humidity 62    
Precipitation  
Precipitation 0.00 in - - ()
Sea Level Pressure  
Sea Level Pressure 29.85 in    
Wind  
Wind Speed 14 mph (West)    
Max Wind Speed 23 mph    
Max Gust Speed 32 mph    
Visibility 10 miles    
Events Snow    
Averages and records for this station are not official NWS values.
T = Trace of Precipitation, MM = Missing Value Source: NWS Daily Summary

Daily Weather History Graph

Daily Weather History Graph

Search for Another Location

Airport or City:

Trip Planner

Search our weather history database for the weather conditions in past years. The results will help you decide how hot, cold, wet, or windy it might be!

Date:

Astronomy

Jan. 12, 2013 Rise Set
Actual Time 7:37 AM CST 4:53 PM CST
Civil Twilight 7:05 AM CST 5:25 PM CST
Nautical Twilight 6:30 AM CST 6:00 PM CST
Astronomical Twilight 5:56 AM CST 6:35 PM CST
Moon 7:53 AM CST (1/12) 6:26 PM CST (1/12)
Length of Visible Light 10h 19m
Length of Day
9h 16m
New Moon, 1% of the Moon is Illuminated
Jan 12
New Moon
Jan 18
First Quarter
Jan 26
Full
Feb 3
Last Quarter
Feb 10
New

Hourly Weather History & Observations

Time (CST) Temp. Windchill Dew Point Humidity Pressure Visibility Wind Dir Wind Speed Gust Speed Precip Events Conditions
12:15 AM 48.2 °F - 42.8 °F 82% 29.46 in 10.0 mi SSW 17.3 mph 26.5 mph N/A   Overcast
12:35 AM 48.2 °F - 42.8 °F 82% 29.46 in 10.0 mi SSW 19.6 mph 29.9 mph N/A   Overcast
12:55 AM 48.2 °F - 42.8 °F 82% 29.47 in 10.0 mi SSW 19.6 mph 26.5 mph N/A   Overcast
1:15 AM 48.2 °F - 42.8 °F 82% 29.47 in 10.0 mi SSW 16.1 mph 25.3 mph N/A   Overcast
1:35 AM 46.4 °F 40.4 °F 41.0 °F 81% 29.48 in 10.0 mi SSW 13.8 mph 28.8 mph N/A   Overcast
1:55 AM 46.4 °F 39.8 °F 41.0 °F 81% 29.51 in 10.0 mi SSW 16.1 mph 25.3 mph N/A   Overcast
2:15 AM 46.4 °F 40.1 °F 41.0 °F 81% 29.54 in 10.0 mi WSW 15.0 mph 26.5 mph N/A   Overcast
2:35 AM 42.8 °F 35.4 °F 39.2 °F 87% 29.55 in 10.0 mi WSW 15.0 mph 29.9 mph N/A   Overcast
2:55 AM 41.0 °F 33.9 °F 39.2 °F 93% 29.57 in 10.0 mi WSW 12.7 mph 18.4 mph N/A   Overcast
3:15 AM 41.0 °F 35.2 °F 37.4 °F 87% 29.58 in 10.0 mi SW 9.2 mph 20.7 mph N/A   Overcast
3:35 AM 37.4 °F 26.4 °F 33.8 °F 87% 29.60 in 10.0 mi WSW 23.0 mph 32.2 mph N/A   Overcast
3:55 AM 35.6 °F 26.6 °F 32.0 °F 87% 29.62 in 10.0 mi WSW 13.8 mph 26.5 mph N/A   Overcast
4:15 AM 33.8 °F 22.5 °F 30.2 °F 87% 29.64 in 10.0 mi WSW 19.6 mph 32.2 mph N/A   Overcast
4:35 AM 32.0 °F 20.1 °F 28.4 °F 87% 29.67 in 10.0 mi West 19.6 mph 31.1 mph N/A   Overcast
4:55 AM 30.2 °F 19.3 °F 26.6 °F 86% 29.69 in 10.0 mi West 15.0 mph 29.9 mph N/A   Overcast
5:15 AM 30.2 °F 19.8 °F 24.8 °F 80% 29.70 in 10.0 mi West 13.8 mph 28.8 mph N/A   Overcast
5:35 AM 28.4 °F 17.5 °F 24.8 °F 86% 29.71 in 10.0 mi West 13.8 mph 28.8 mph N/A   Overcast
5:55 AM 28.4 °F 15.4 °F 23.0 °F 80% 29.73 in 10.0 mi WSW 19.6 mph 29.9 mph N/A   Overcast
6:15 AM 26.6 °F 15.7 °F 21.2 °F 80% 29.75 in 10.0 mi WSW 12.7 mph 25.3 mph N/A   Overcast
6:35 AM 26.6 °F 16.8 °F 21.2 °F 80% 29.77 in 10.0 mi WSW 10.4 mph 24.2 mph N/A   Overcast
6:55 AM 26.6 °F 13.4 °F 19.4 °F 74% 29.79 in 10.0 mi WSW 18.4 mph 27.6 mph N/A   Overcast
7:15 AM 24.8 °F 12.4 °F 17.6 °F 74% 29.82 in 10.0 mi West 15.0 mph 25.3 mph N/A   Overcast
7:35 AM 23.0 °F 10.6 °F 15.8 °F 74% 29.82 in 10.0 mi West 13.8 mph 25.3 mph N/A   Overcast
7:55 AM 21.2 °F 8.9 °F 14.0 °F 74% 29.83 in 10.0 mi WSW 12.7 mph 23.0 mph N/A   Overcast
8:15 AM 21.2 °F 10.9 °F 14.0 °F 74% 29.86 in 10.0 mi West 9.2 mph 23.0 mph N/A   Overcast
8:35 AM 21.2 °F 7.8 °F 14.0 °F 74% 29.87 in 10.0 mi West 15.0 mph 23.0 mph N/A   Overcast
8:55 AM 19.4 °F 4.1 °F 10.4 °F 68% 29.87 in 10.0 mi West 18.4 mph 26.5 mph N/A   Overcast
9:15 AM 19.4 °F 5.5 °F 10.4 °F 68% 29.88 in 10.0 mi West 15.0 mph - N/A   Overcast
9:35 AM 19.4 °F 7.2 °F 12.2 °F 74% 29.89 in 10.0 mi West 11.5 mph 23.0 mph N/A   Overcast
9:55 AM 21.2 °F 7.3 °F 12.2 °F 68% 29.91 in 10.0 mi West 16.1 mph - N/A   Overcast
10:15 AM 19.4 °F 7.2 °F 12.2 °F 74% 29.92 in 10.0 mi West 11.5 mph 20.7 mph N/A   Overcast
10:35 AM 19.4 °F 5.5 °F 10.4 °F 68% 29.93 in 10.0 mi WSW 15.0 mph 25.3 mph N/A   Mostly Cloudy
10:55 AM 19.4 °F 8.6 °F 10.4 °F 68% 29.92 in 10.0 mi West 9.2 mph 23.0 mph N/A   Mostly Cloudy
11:15 AM 19.4 °F 6.6 °F 8.6 °F 63% 29.92 in 10.0 mi West 12.7 mph 21.9 mph N/A   Mostly Cloudy
11:55 AM 19.4 °F 6.6 °F 10.4 °F 68% 29.92 in 10.0 mi West 12.7 mph 24.2 mph N/A   Mostly Cloudy
12:15 PM 21.2 °F 8.3 °F 10.4 °F 63% 29.92 in 10.0 mi WNW 13.8 mph 20.7 mph N/A   Mostly Cloudy
12:35 PM 21.2 °F 10.9 °F 12.2 °F 68% 29.93 in 10.0 mi West 9.2 mph 19.6 mph N/A   Overcast
12:55 PM 21.2 °F 11.7 °F 12.2 °F 68% 29.92 in 10.0 mi West 8.1 mph 18.4 mph N/A Snow Light Snow
1:35 PM 21.2 °F 10.1 °F 12.2 °F 68% 29.94 in 10.0 mi West 10.4 mph - N/A   Overcast
1:55 PM 19.4 °F 11.5 °F 12.2 °F 74% 29.94 in 5.0 mi Variable 5.8 mph 23.0 mph N/A Snow Light Snow
2:15 PM 19.4 °F 7.2 °F 10.4 °F 68% 29.95 in 10.0 mi WNW 11.5 mph 21.9 mph N/A   Mostly Cloudy
2:35 PM 19.4 °F 7.9 °F 10.4 °F 68% 29.95 in 10.0 mi West 10.4 mph 18.4 mph N/A   Mostly Cloudy
2:55 PM 19.4 °F 7.9 °F 10.4 °F 68% 29.95 in 10.0 mi West 10.4 mph 16.1 mph N/A   Mostly Cloudy
3:15 PM 19.4 °F 7.2 °F 10.4 °F 68% 29.96 in 10.0 mi West 11.5 mph 18.4 mph N/A   Overcast
3:35 PM 19.4 °F 9.5 °F 10.4 °F 68% 29.97 in 10.0 mi Variable 8.1 mph 20.7 mph N/A   Overcast
3:55 PM 19.4 °F 8.6 °F 8.6 °F 63% 29.99 in 10.0 mi West 9.2 mph 18.4 mph N/A   Overcast
4:15 PM 19.4 °F 8.6 °F 10.4 °F 68% 29.99 in 10.0 mi West 9.2 mph - N/A   Overcast
4:35 PM 19.4 °F 10.4 °F 10.4 °F 68% 29.99 in 10.0 mi West 6.9 mph 13.8 mph N/A Snow Light Snow
4:55 PM 19.4 °F 8.6 °F 10.4 °F 68% 29.99 in 10.0 mi West 9.2 mph - N/A   Overcast
5:15 PM 19.4 °F 8.6 °F 10.4 °F 68% 29.98 in 10.0 mi West 9.2 mph - N/A   Overcast
5:35 PM 19.4 °F 8.6 °F 10.4 °F 68% 29.98 in 10.0 mi West 9.2 mph 16.1 mph N/A   Overcast
5:55 PM 19.4 °F 9.5 °F 10.4 °F 68% 29.97 in 10.0 mi West 8.1 mph 13.8 mph N/A Snow Light Snow
6:15 PM 19.4 °F 14.3 °F 12.2 °F 74% 29.98 in 8.0 mi Variable 3.5 mph 16.1 mph N/A Snow Light Snow
6:35 PM 17.6 °F 7.3 °F 12.2 °F 79% 29.98 in 6.0 mi WNW 8.1 mph 15.0 mph N/A Snow Light Snow
7:15 PM 17.6 °F 6.4 °F 8.6 °F 68% 30.00 in 10.0 mi WNW 9.2 mph 19.6 mph N/A   Overcast
7:35 PM 17.6 °F 12.3 °F 8.6 °F 68% 30.00 in - Variable 3.5 mph 11.5 mph N/A   Overcast
7:55 PM 15.8 °F 5.1 °F 6.8 °F 68% 30.02 in 10.0 mi WNW 8.1 mph - N/A   Overcast
8:15 PM 15.8 °F 5.1 °F 6.8 °F 68% 30.01 in 10.0 mi WNW 8.1 mph 15.0 mph N/A   Overcast
8:35 PM 15.8 °F 2.1 °F 6.8 °F 68% 30.00 in 10.0 mi NW 12.7 mph - N/A   Overcast
8:55 PM 15.8 °F 3.4 °F 6.8 °F 68% 30.00 in 10.0 mi NW 10.4 mph - N/A   Overcast
9:15 PM 15.8 °F 3.4 °F 8.6 °F 73% 30.00 in 9.0 mi NW 10.4 mph 16.1 mph N/A Snow Light Snow
9:35 PM 15.8 °F 2.1 °F 6.8 °F 68% 29.99 in 10.0 mi NW 12.7 mph 18.4 mph N/A   Overcast
9:55 PM 15.8 °F 3.4 °F 6.8 °F 68% 30.00 in 10.0 mi NW 10.4 mph 17.3 mph N/A   Overcast
10:15 PM 15.8 °F 2.1 °F 6.8 °F 68% 29.99 in 10.0 mi NW 12.7 mph - N/A   Overcast
10:35 PM 14.0 °F -2.0 °F 6.8 °F 73% 29.99 in 10.0 mi NW 16.1 mph - N/A Snow Light Snow
10:55 PM 14.0 °F -0.8 °F 5.0 °F 67% 29.99 in 10.0 mi NW 13.8 mph - N/A   Overcast
11:15 PM 14.0 °F -1.4 °F 3.2 °F 62% 30.00 in 10.0 mi NNW 15.0 mph 20.7 mph N/A   Overcast
11:35 PM 14.0 °F 0.5 °F 3.2 °F 62% 29.99 in 10.0 mi NW 11.5 mph - N/A   Mostly Cloudy
11:55 PM 12.2 °F -2.5 °F 3.2 °F 67% 30.00 in 10.0 mi NNW 12.7 mph - N/A   Mostly Cloudy